Weather History for Yellowstone, WY

Change the Weather History Date:

Friday, March 1, 2013

  Actual Average Record
Temperature  
Mean Temperature 25 °F 18 °F  
Max Temperature 33 °F 32 °F 43 °F (2009)
Min Temperature 16 °F 5 °F -19 °F (2002)
Degree Days  
Heating Degree Days 40 47  
Month to date heating degree days 40 47  
Since 1 July heating degree days 7907 7984  
Cooling Degree Days 0 0  
Month to date cooling degree days 0 0  
Year to date cooling degree days 0 0  
Moisture  
Dew Point 20 °F    
Average Humidity 79    
Maximum Humidity 92    
Minimum Humidity 66    
Precipitation  
Precipitation 0.01 in 0.03 in 0.27 in (2014)
Month to date precipitation 0.01 0.03  
Year to date precipitation 2.35 3.55  
Sea Level Pressure  
Sea Level Pressure 30.53 in    
Wind  
Wind Speed 1 mph (South)    
Max Wind Speed 14 mph    
Max Gust Speed 20 mph    
T = Trace of Precipitation, MM = Missing Value Source: NWS Daily Summary

Daily Weather History Graph

Daily Weather History Graph

Search for Another Location

Airport:

Trip Planner

Search our weather history database for the weather conditions in past years. The results will help you decide how hot, cold, wet, or windy it might be!

Date:

Astronomy

Mar. 01, 2013 Rise Set
Actual Time 6:58 AM MST 6:10 PM MST
Civil Twilight 6:29 AM MST 6:39 PM MST
Nautical Twilight 5:55 AM MST 7:12 PM MST
Astronomical Twilight 5:21 AM MST 7:46 PM MST
Moon 11:00 PM MST 8:35 AM MST
Length of Visible Light 12h 09m
Length of Day
11h 11m
Waning Gibbous, 83% of the Moon is Illuminated
Mar 1
Waning Gibbous
Mar 4
Last Quarter
Mar 11
New
Mar 19
First Quarter
Mar 27
Full

Hourly Weather History & Observations

Time (MST) Temp. Windchill Dew Point Humidity Pressure Visibility Wind Dir Wind Speed Gust Speed Precip Events Conditions
12:56 AM 16.0 °F - 12.9 °F 88% 30.51 in - Calm Calm - N/A   Unknown
1:56 AM 17.1 °F - 12.9 °F 84% 30.50 in - Calm Calm - N/A   Unknown
2:56 AM 17.1 °F - 14.0 °F 88% 30.49 in - Calm Calm - N/A   Unknown
3:56 AM 18.0 °F - 15.1 °F 88% 30.50 in - Calm Calm - N/A   Unknown
4:56 AM 18.0 °F - 15.1 °F 88% 30.53 in - Calm Calm - N/A   Unknown
5:56 AM 19.0 °F 13.9 °F 15.1 °F 85% 30.55 in - East 3.5 mph - N/A   Unknown
6:56 AM 18.0 °F - 15.1 °F 88% 30.58 in - Calm Calm - N/A   Unknown
7:56 AM 19.9 °F - 17.1 °F 89% 30.60 in - Calm Calm - N/A   Unknown
8:56 AM 23.0 °F - 19.0 °F 85% 30.57 in - Calm Calm - N/A   Unknown
9:56 AM 26.1 °F - 21.0 °F 81% 30.54 in - Calm Calm - N/A   Unknown
10:56 AM 28.9 °F 25.2 °F 21.9 °F 75% 30.53 in - Variable 3.5 mph - N/A   Unknown
11:56 AM 30.0 °F - 23.0 °F 75% 30.53 in - Calm Calm - N/A   Unknown
12:56 PM 32.0 °F 25.6 °F 23.0 °F 69% 30.51 in - Variable 6.9 mph - N/A   Unknown
1:56 PM 32.0 °F 24.2 °F 23.0 °F 69% 30.48 in - West 9.2 mph 18.4 mph N/A   Unknown
2:56 PM 30.0 °F - 23.0 °F 75% 30.52 in - Calm Calm - 0.01 in   Unknown
3:56 PM 32.0 °F - 23.0 °F 69% 30.51 in - Calm Calm - N/A   Unknown
4:56 PM 28.9 °F - 21.9 °F 75% 30.53 in - Calm Calm - N/A   Unknown
5:56 PM 27.0 °F - 21.9 °F 81% 30.55 in - Calm Calm - N/A   Unknown
6:56 PM 27.0 °F - 21.9 °F 81% 30.58 in - Calm Calm - N/A   Unknown
7:56 PM 27.0 °F 23.0 °F 21.9 °F 81% 30.56 in - Variable 3.5 mph - N/A   Unknown
8:56 PM 26.1 °F - 21.9 °F 84% 30.56 in - Calm Calm - N/A   Unknown
9:56 PM 26.1 °F - 23.0 °F 88% 30.55 in - Calm Calm - N/A   Unknown
10:56 PM 27.0 °F - 24.1 °F 89% 30.53 in - Calm Calm - N/A   Unknown
11:56 PM 27.0 °F - 23.0 °F 85% 30.51 in - Calm Calm - N/A   Unknown